Location: *
(46.3500°N, 10.9000°E)
Time: 22:10:12
(UTC+00:00)

A-11 Canister half - Pass Details

Date: 20 April 2021
Orbit: 1526 x 1682 km, 47.3° (Epoch: 13 May)

Event Time Altitude Azimuth Distance (km) Brightness Sun altitude
Rises 21:35:59 0° 292° (WNW) 4,940 12.4 -27.7°
Reaches altitude 10° 21:39:39 10° 283° (WNW) 3,945 11.6 -28.0°
Maximum altitude 21:47:56 30° 228° (SW) 2,651 10.0 -28.6°
Enters shadow 21:49:36 29° 211° (SSW) 2,708 9.9 -28.7°
Drops below altitude 10° 21:56:05 10° 172° (S) 3,864 - -29.2°
Sets 21:59:40 0° 162° (SSE) 4,824 - -29.4°
